| time (UTC) | temp F | wind direction | speed MPH | gust MPH | rain 1hr in | rain 24hr in | rain mn in | humidity % | barometer mb |
| 20260906163505 | 64 | 216 | 13.0 | 15.0 | 0.00 | 0.00 | 0.00 | 1013.0 | |
| 20260906160506 | 64 | 216 | 13.0 | 15.0 | 0.00 | 0.00 | 0.00 | 1012.0 | |
| 20260906153505 | 64 | 210 | 14.0 | 17.0 | 0.00 | 0.00 | 0.00 | 1013.0 | |
| 20260906150505 | 64 | 210 | 14.0 | 17.0 | 0.00 | 0.00 | 0.00 | 1013.0 | |
| 20260906143505 | 64 | 202 | 13.0 | 16.0 | 0.00 | 0.00 | 0.00 | 1014.0 | |
| 20260906140505 | 64 | 202 | 13.0 | 16.0 | 0.00 | 0.00 | 0.00 | 1014.0 | |
| 20260906133505 | 63 | 203 | 13.0 | 17.0 | 0.00 | 0.00 | 0.00 | 1015.0 | |
| 20260906130505 | 63 | 203 | 13.0 | 17.0 | 0.00 | 0.00 | 0.00 | 1015.0 | |
| 20260906123506 | 63 | 207 | 13.0 | 16.0 | 0.00 | 0.00 | 0.00 | 1015.0 | |
| 20260906120506 | 63 | 207 | 14.0 | 18.0 | 0.00 | 0.00 | 0.00 | 1015.0 | |
| 20260906113506 | 62 | 211 | 13.0 | 15.0 | 0.00 | 0.00 | 0.00 | 1015.0 | |
| 20260906110506 | 62 | 211 | 13.0 | 15.0 | 0.00 | 0.00 | 0.00 | 1015.0 | |
| 20260906103506 | 61 | 202 | 7.0 | 9.0 | 0.00 | 0.00 | 0.00 | 1016.0 | |
| 20260906100506 | 61 | 202 | 7.0 | 9.0 | 0.00 | 0.00 | 0.00 | 1016.0 | |
| 20260906093506 | 60 | 198 | 6.0 | 7.0 | 0.00 | 0.00 | 0.00 | 1016.0 | |
| 20260906090506 | 60 | 198 | 6.0 | 7.0 | 0.00 | 0.00 | 0.00 | 1016.0 | |
| 20260906083506 | 60 | 208 | 8.0 | 9.0 | 0.00 | 0.00 | 0.00 | 1017.0 | |
| 20260906080506 | 60 | 208 | 8.0 | 9.0 | 0.00 | 0.00 | 0.00 | 1017.0 | |
| 20260906073505 | 59 | 196 | 6.0 | 8.0 | 0.00 | 0.00 | 0.00 | 1018.0 | |
| 20260906070505 | 59 | 196 | 6.0 | 8.0 | 0.00 | 0.00 | 0.00 | 1018.0 | |
| 20260906063505 | 58 | 178 | 9.0 | 12.0 | 0.00 | 0.00 | 0.00 | 1019.0 | |
| 20260906060505 | 58 | 194 | 10.0 | 13.0 | 0.00 | 0.00 | 0.00 | 1019.0 | |
| 20260906053505 | 58 | 190 | 12.0 | 16.0 | 0.00 | 0.00 | 0.00 | 1019.0 | |
| 20260906050505 | 58 | 190 | 12.0 | 16.0 | 0.00 | 0.00 | 0.00 | 1019.0 | |
| 20260906043505 | 58 | 188 | 12.0 | 15.0 | 0.00 | 0.00 | 0.00 | 1020.0 | |
| 20260906040505 | 58 | 188 | 12.0 | 15.0 | 0.00 | 0.00 | 0.00 | 1020.0 | |
| 20260906033505 | 57 | 195 | 11.0 | 15.0 | 0.00 | 0.00 | 0.00 | 1021.0 | |
| 20260906030505 | 57 | 195 | 11.0 | 15.0 | 0.00 | 0.00 | 0.00 | 1021.0 | |
| 20260906023506 | 57 | 199 | 9.0 | 12.0 | 0.00 | 0.00 | 0.00 | 1022.0 | |
| 20260906020506 | 57 | 199 | 9.0 | 12.0 | 0.00 | 0.00 | 0.00 | 1022.0 | |
| 20260906013506 | 57 | 195 | 9.0 | 12.0 | 0.00 | 0.00 | 0.00 | 1022.0 | |
| 20260906010506 | 57 | 195 | 9.0 | 12.0 | 0.00 | 0.00 | 0.00 | 1022.0 | |
| 20260906003506 | 57 | 187 | 9.0 | 12.0 | 0.00 | 0.00 | 0.00 | 1023.0 | |
| 20260906000506 | 58 | 190 | 8.0 | 11.0 | 0.00 | 0.00 | 0.00 | 1023.0 | |
| 20260905233505 | 58 | 207 | 8.0 | 11.0 | 0.00 | 0.00 | 0.00 | 1023.0 | |
| 20260905230506 | 58 | 207 | 8.0 | 11.0 | 0.00 | 0.00 | 0.00 | 1023.0 | |
| 20260905223505 | 58 | 221 | 9.0 | 12.0 | 0.00 | 0.00 | 0.00 | 1023.0 | |
| 20260905220505 | 58 | 221 | 9.0 | 12.0 | 0.00 | 0.00 | 0.00 | 1023.0 | |
| 20260905213505 | 59 | 237 | 11.0 | 14.0 | 0.00 | 0.00 | 0.00 | 1024.0 | |
| 20260905210505 | 59 | 237 | 11.0 | 14.0 | 0.00 | 0.00 | 0.00 | 1024.0 | |
| 20260905203505 | 59 | 244 | 13.0 | 17.0 | 0.00 | 0.00 | 0.00 | 1024.0 | |
| 20260905200505 | 59 | 244 | 13.0 | 17.0 | 0.00 | 0.00 | 0.00 | 1024.0 | |
| 20260905193505 | 60 | 247 | 14.0 | 18.0 | 0.00 | 0.00 | 0.00 | 1023.0 | |
| 20260905190505 | 60 | 247 | 14.0 | 18.0 | 0.00 | 0.00 | 0.00 | 1023.0 | |
| 20260905183506 | 60 | 253 | 15.0 | 19.0 | 0.00 | 0.00 | 0.00 | 1023.0 | |
| 20260905180506 | 60 | 252 | 14.0 | 18.0 | 0.00 | 0.00 | 0.00 | 1023.0 | |
| 20260905173506 | 61 | 252 | 16.0 | 21.0 | 0.00 | 0.00 | 0.00 | 1022.0 | |
| 20260905170506 | 61 | 252 | 16.0 | 21.0 | 0.00 | 0.00 | 0.00 | 1022.0 |